GW1980 Weather Reports


time (UTC)temp
C
wind
direction
speed
KPH
gust
KPH
rain 1hr
cm
rain 24hr
cm
rain mn
cm
humidity
%
barometer
mb
20260506232950 16 151 0.0 1.6 0.00 0.36 0.36 83 1014.2
20260506225954 16 67 1.6 6.4 0.00 0.36 0.36 84 1013.9
20260506224448 16 81 1.6 8.0 0.28 0.36 0.36 83 1013.9
20260506222950 16 90 1.6 4.8 0.28 0.36 0.36 86 1013.7
20260506221447 15 160 0.0 4.8 0.28 0.36 0.36 89 1013.9
20260506215951 15 188 1.6 4.8 0.28 0.36 0.36 88 1014.2
20260506214448 16 340 3.2 8.0 0.00 0.08 0.08 77 1014.5
20260506212949 16 61 6.4 14.5 0.00 0.08 0.08 78 1014.0
20260506211447 16 55 3.2 9.7 0.00 0.08 0.08 79 1014.0
20260506205954 16 335 6.4 12.9 0.00 0.08 0.08 77 1014.2
20260506204447 16 344 6.4 9.7 0.00 0.08 0.08 78 1014.2
20260506202950 15 41 4.8 11.3 0.00 0.08 0.08 79 1014.5
20260506201447 15 57 6.4 16.1 0.00 0.08 0.08 79 1014.5
20260506194448 15 42 8.0 12.9 0.00 0.08 0.08 81 1014.9
20260506192950 14 29 6.4 14.5 0.00 0.08 0.08 83 1015.1
20260506191447 13 40 6.4 12.9 0.00 0.08 0.08 85 1015.4
20260506185954 13 51 3.2 11.3 0.00 0.08 0.08 85 1015.5
20260506184447 12 356 3.2 8.0 0.00 0.08 0.08 88 1015.8
20260506181447 12 12 4.8 9.7 0.00 0.08 0.08 87 1015.8
20260506175952 12 360 8.0 20.9 0.00 0.08 0.08 89 1015.4
20260506174447 12 26 11.3 22.5 0.00 0.08 0.08 88 1014.7
20260506171447 11 37 9.7 17.7 0.00 0.08 0.08 94 1014.7
20260506165952 11 44 8.0 19.3 0.00 0.08 0.08 98 1015.2
20260506164447 11 28 8.0 14.5 0.00 0.08 0.08 98 1014.6
20260506162950 11 43 4.8 11.3 0.00 0.08 0.08 98 1015.2
20260506161447 11 55 8.0 17.7 0.00 0.08 0.08 98 1015.1
20260506155950 10 28 9.7 16.1 0.00 0.08 0.08 97 1015.2
20260506154447 11 13 8.0 16.1 0.00 0.08 0.08 97 1014.7
20260506152950 11 81 11.3 24.1 0.00 0.08 0.08 98 1014.4
20260506151447 11 56 6.4 16.1 0.08 0.08 0.08 98 1014.2
20260506145953 10 359 3.2 8.0 0.08 0.08 0.08 97 1015.8
20260506144447 10 333 8.0 16.1 0.08 0.08 0.08 96 1015.9
20260506142950 10 40 6.4 16.1 0.05 0.05 0.05 91 1015.8
20260506141447 11 321 6.4 11.3 0.00 0.00 0.00 89 1016.6
20260506135952 11 360 11.3 19.3 0.00 0.00 0.00 87 1014.5
20260506134447 11 57 14.5 25.7 0.00 0.00 0.00 86 1014.4
20260506132949 11 330 11.3 20.9 0.00 0.00 0.00 85 1014.9
20260506131447 11 9 6.4 16.1 0.00 0.00 0.00 84 1014.5
20260506125953 11 356 9.7 20.9 0.00 0.00 0.00 84 1014.1
20260506124447 12 64 8.0 25.7 0.00 0.00 0.00 83 1013.5
20260506122950 12 49 6.4 16.1 0.00 0.00 0.00 82 1013.3
20260506121447 12 347 9.7 14.5 0.00 0.00 0.00 81 1013.1
20260506115950 13 1 6.4 12.9 0.00 0.00 0.00 81 1012.8
20260506112950 13 33 6.4 17.7 0.00 0.00 0.00 81 1012.8
20260506111447 13 347 6.4 12.9 0.00 0.00 0.00 80 1012.4
20260506105953 13 353 8.0 17.7 0.00 0.00 0.00 79 1012.0
20260506104447 13 6 6.4 19.3 0.00 0.00 0.00 80 1012.1
20260506102949 14 18 6.4 14.5 0.00 0.00 0.00 81 1011.6
20260506101447 14 44 4.8 8.0 0.00 0.00 0.00 82 1011.3
20260506095951 14 359 3.2 9.7 0.00 0.00 0.00 82 1011.1
20260506094447 14 9 4.8 11.3 0.00 0.00 0.00 82 1010.8
20260506092950 14 60 6.4 16.1 0.00 0.00 0.00 82 1010.8
20260506091447 15 46 3.2 11.3 0.00 0.00 0.00 83 1010.6
20260506085952 15 49 8.0 14.5 0.00 0.00 0.00 83 1010.8
20260506084447 15 49 6.4 12.9 0.00 0.00 0.00 83 1010.8
20260506082949 15 58 6.4 12.9 0.00 0.00 0.00 84 1010.5
20260506081447 15 25 4.8 11.3 0.00 0.00 0.00 83 1010.4
20260506072950 15 358 4.8 11.3 0.00 0.00 0.00 83 1010.2
20260506071447 15 49 0.0 11.3 0.00 0.00 0.00 84 1010.1
20260506061447 16 39 4.8 16.1 0.00 0.00 0.00 81 1009.9
20260506044447 17 4 4.8 14.5 0.00 0.00 0.00 77 1009.9
20260506042951 18 7 4.8 11.3 0.00 0.00 0.00 76 1009.8
20260506041447 18 30 8.0 14.5 0.00 0.00 0.00 75 1009.8
20260506035952 18 7 8.0 16.1 0.00 0.00 0.00 75 1009.9
20260506034447 18 3 8.0 16.1 0.00 0.00 0.00 74 1009.9
20260506032950 19 34 9.7 20.9 0.00 0.00 0.00 73 1009.5
20260506031447 19 25 8.0 16.1 0.00 0.00 0.00 73 1008.9
20260506025953 20 47 9.7 19.3 0.00 0.00 0.00 72 1008.4
20260506024447 20 46 6.4 14.5 0.00 0.00 0.00 72 1008.1
20260506022950 21 85 8.0 17.7 0.00 0.00 0.00 72 1007.7
20260506021448 21 40 11.3 19.3 0.00 0.00 0.00 71 1007.3
20260506015952 21 58 9.7 16.1 0.00 0.00 0.00 70 1007.3
20260506014447 21 16 8.0 17.7 0.00 0.00 0.00 70 1006.9
20260506011448 22 16 4.8 11.3 0.00 0.00 0.00 68 1006.2
20260506002950 24 68 11.3 19.3 0.00 0.00 0.00 65 1005.4
20260506001447 25 46 11.3 19.3 0.00 0.00 0.00 63 1005.4
20260505235952 26 41 11.3 19.3 0.00 0.00 0.00 61 1005.3
20260505234447 28 65 9.7 20.9 0.00 0.00 0.00 60 1004.9